Weather History for Port Angeles, WA

Change the Weather History Date:

Wednesday, November 14, 2012

  Actual Average Record
Temperature  
Mean Temperature 43 °F -  
Max Temperature 50 °F 49 °F 59 °F (1967)
Min Temperature 36 °F 37 °F 15 °F (1955)
Degree Days  
Heating Degree Days 22    
Moisture  
Dew Point 41 °F    
Average Humidity 91    
Maximum Humidity 100    
Minimum Humidity 80    
Precipitation  
Precipitation 0.00 in - - ()
Sea Level Pressure  
Sea Level Pressure 30.29 in    
Wind  
Wind Speed 3 mph (West)    
Max Wind Speed 7 mph    
Max Gust Speed -    
Visibility 7 miles    
Events Fog    
Averages and records for this station are not official NWS values.
T = Trace of Precipitation, MM = Missing Value Source: NWS Daily Summary

Daily Weather History Graph

Daily Weather History Graph

Search for Another Location

Airport:

Trip Planner

Search our weather history database for the weather conditions in past years. The results will help you decide how hot, cold, wet, or windy it might be!

Date:

Astronomy

Nov. 14, 2012 Rise Set
Actual Time 7:20 AM PST 4:36 PM PST
Civil Twilight 6:46 AM PST 5:10 PM PST
Nautical Twilight 6:08 AM PST 5:48 PM PST
Astronomical Twilight 5:31 AM PST 6:24 PM PST
Moon 8:20 AM PST (11/14) 5:25 PM PST (11/14)
Length of Visible Light 10h 24m
Length of Day
9h 16m
New Moon, 1% of the Moon is Illuminated
Nov 14
New Moon
Nov 20
First Quarter
Nov 28
Full
Dec 6
Last Quarter
Dec 13
New

Hourly Weather History & Observations

Time (PST) Temp. Windchill Dew Point Humidity Pressure Visibility Wind Dir Wind Speed Gust Speed Precip Events Conditions
12:23 AM 43.0 °F 41.3 °F 41.0 °F 93% 30.18 in 10.0 mi SW 3.5 mph - N/A   Overcast
12:53 AM 43.0 °F 39.5 °F 41.0 °F 93% 30.19 in 10.0 mi SW 5.8 mph - N/A   Scattered Clouds
1:09 AM 44.1 °F 40.8 °F 41.0 °F 89% 30.19 in 10.0 mi West 5.8 mph - N/A   Scattered Clouds
1:20 AM 44.1 °F 42.5 °F 41.0 °F 89% 30.19 in 10.0 mi WSW 3.5 mph - N/A   Mostly Cloudy
1:53 AM 45.0 °F 41.2 °F 42.1 °F 90% 30.19 in 10.0 mi West 6.9 mph - N/A   Overcast
2:53 AM 45.0 °F 43.5 °F 42.1 °F 90% 30.21 in 10.0 mi West 3.5 mph - 0.00 in   Overcast
3:53 AM 45.0 °F - 42.1 °F 90% 30.21 in 10.0 mi Calm Calm - N/A   Overcast
4:53 AM 44.1 °F 40.1 °F 41.0 °F 89% 30.22 in 10.0 mi West 6.9 mph - 0.00 in   Mostly Cloudy
5:53 AM 44.1 °F 40.1 °F 42.1 °F 93% 30.25 in 10.0 mi West 6.9 mph - N/A   Scattered Clouds
6:05 AM 44.1 °F 40.1 °F 42.1 °F 93% 30.24 in 10.0 mi West 6.9 mph - N/A   Mostly Cloudy
6:15 AM 43.0 °F 41.3 °F 42.1 °F 97% 30.24 in 10.0 mi West 3.5 mph - N/A   Overcast
6:46 AM 43.0 °F 39.5 °F 42.1 °F 97% 30.25 in 1.8 mi SW 5.8 mph - N/A   Overcast
6:53 AM 43.0 °F 39.5 °F 41.0 °F 93% 30.26 in 1.2 mi West 5.8 mph - N/A   Overcast
6:59 AM 43.0 °F 38.8 °F 41.0 °F 93% 30.25 in 3.0 mi West 6.9 mph - N/A   Mostly Cloudy
7:12 AM 44.1 °F 40.8 °F 42.1 °F 93% 30.25 in 10.0 mi West 5.8 mph - N/A   Overcast
7:27 AM 44.1 °F 41.5 °F 42.1 °F 93% 30.26 in 10.0 mi West 4.6 mph - N/A   Overcast
7:53 AM 45.0 °F 41.2 °F 43.0 °F 93% 30.28 in 10.0 mi SW 6.9 mph - N/A   Overcast
8:53 AM 46.9 °F - 43.0 °F 86% 30.29 in 10.0 mi WSW 4.6 mph - N/A   Overcast
9:24 AM 48.0 °F - 43.0 °F 83% 30.29 in 10.0 mi WSW 5.8 mph - N/A   Scattered Clouds
9:53 AM 48.0 °F - 42.1 °F 80% 30.30 in 10.0 mi West 4.6 mph - N/A   Partly Cloudy
10:37 AM 50.0 °F - 44.1 °F 80% 30.30 in 10.0 mi North 4.6 mph - N/A   Mostly Cloudy
10:53 AM 50.0 °F - 44.1 °F 80% 30.31 in 10.0 mi NNE 3.5 mph - N/A   Overcast
11:33 AM 48.9 °F - 43.0 °F 80% 30.31 in 10.0 mi North 5.8 mph - N/A   Partly Cloudy
11:53 AM 48.9 °F - 44.1 °F 83% 30.31 in 10.0 mi North 4.6 mph - N/A   Clear
12:38 PM 48.9 °F - 43.0 °F 80% 30.31 in 10.0 mi North 3.5 mph - N/A   Mostly Cloudy
12:53 PM 48.9 °F - 44.1 °F 83% 30.32 in 10.0 mi Calm Calm - N/A   Overcast
1:02 PM 48.9 °F - 44.1 °F 83% 30.31 in 10.0 mi North 4.6 mph - N/A   Overcast
1:33 PM 48.9 °F - 44.1 °F 83% 30.32 in 10.0 mi Variable 3.5 mph - N/A   Overcast
1:43 PM 48.9 °F - 44.1 °F 83% 30.32 in 10.0 mi NNW 3.5 mph - N/A   Overcast
1:53 PM 48.9 °F - 44.1 °F 83% 30.32 in 10.0 mi Calm Calm - N/A   Overcast
2:53 PM 50.0 °F - 45.0 °F 83% 30.32 in 10.0 mi Calm Calm - N/A   Overcast
3:53 PM 50.0 °F - 45.0 °F 83% 30.32 in 10.0 mi SE 3.5 mph - N/A   Overcast
4:53 PM 48.0 °F - 44.1 °F 86% 30.32 in 10.0 mi ESE 3.5 mph - N/A   Overcast
5:53 PM 46.9 °F - 44.1 °F 90% 30.33 in 10.0 mi Calm Calm - N/A   Overcast
6:46 PM 46.9 °F - 44.1 °F 90% 30.32 in 10.0 mi Calm Calm - N/A   Overcast
6:53 PM 46.0 °F - 44.1 °F 93% 30.33 in 10.0 mi Calm Calm - N/A   Overcast
7:09 PM 46.0 °F - 44.1 °F 93% 30.32 in 10.0 mi Calm Calm - N/A   Overcast
7:33 PM 45.0 °F - 44.1 °F 97% 30.32 in 10.0 mi Calm Calm - N/A   Scattered Clouds
7:41 PM 43.0 °F - 42.1 °F 97% 30.32 in 0.8 mi Calm Calm - N/A   Partly Cloudy
7:48 PM 44.6 °F - 42.8 °F 93% 30.31 in 0.5 mi Calm Calm - N/A Fog Fog
7:53 PM 45.0 °F - 43.0 °F 93% 30.32 in 0.8 mi Calm Calm - N/A   Mist
8:11 PM 43.0 °F - 41.0 °F 93% 30.31 in 1.2 mi Calm Calm - N/A   Partly Cloudy
8:32 PM 42.1 °F - 39.9 °F 92% 30.31 in 0.5 mi Calm Calm - N/A Fog Fog
8:44 PM 41.0 °F - 39.0 °F 93% 30.31 in 0.8 mi Calm Calm - N/A   Mist
8:53 PM 41.0 °F - 39.0 °F 93% 30.32 in 1.0 mi Calm Calm - N/A   Clear
9:01 PM 39.0 °F - 37.9 °F 96% 30.31 in 0.5 mi Calm Calm - N/A Fog Fog
9:10 PM 39.9 °F - 39.0 °F 97% 30.31 in 0.2 mi Calm Calm - N/A Fog Fog
9:32 PM 39.0 °F 36.8 °F 37.9 °F 96% 30.31 in 1.0 mi SSW 3.5 mph - N/A   Mist
9:40 PM 37.9 °F - 37.0 °F 97% 30.31 in 0.8 mi Calm Calm - N/A   Mist
9:53 PM 37.9 °F - 36.0 °F 93% 30.32 in 0.5 mi Calm Calm - N/A Fog Fog
10:02 PM 39.0 °F - 37.0 °F 93% 30.31 in 1.2 mi Calm Calm - N/A   Scattered Clouds
10:06 PM 37.9 °F 35.5 °F 37.0 °F 97% 30.30 in 3.0 mi SW 3.5 mph - N/A   Scattered Clouds
10:16 PM 36.0 °F 33.3 °F 36.0 °F 100% 30.30 in 2.0 mi SSW 3.5 mph - N/A   Partly Cloudy
10:34 PM 37.0 °F - 35.1 °F 93% 30.30 in 1.2 mi Calm Calm - N/A   Scattered Clouds
10:49 PM 37.4 °F - 35.6 °F 93% 30.30 in 1.2 mi Calm Calm - N/A   Mostly Cloudy
10:53 PM 37.9 °F - 37.0 °F 97% 30.31 in 2.0 mi Calm Calm - N/A   Mostly Cloudy
11:02 PM 37.0 °F - 36.0 °F 96% 30.30 in 10.0 mi Calm Calm - N/A   Overcast
11:45 PM 39.9 °F - 39.0 °F 97% 30.29 in 5.0 mi Calm Calm - N/A   Overcast
11:53 PM 39.9 °F - 39.0 °F 97% 30.30 in 5.0 mi Calm Calm - N/A   Overcast